RH
22 22 22 22 22 22 21 21 21 21 21 21 22 21 22 22 22 23 24 25 25 26 26 27 27 27 27 27 26 23 23 23 24 24 22 21 21 21 20 17 14 15 17 18 18 19 17 14 12 12 13 14 14 14 12 8 15 38 62 81 86 72 60 54 48 45 48 51 51 49 44 39 32 28 30 36 40 43 43 43 47 49 45 37 28 20 15 13
22 22 23 23 23 23 23 23 23 23 22 23 23 23 23 23 23 23 24 25 26 27 27 27 29 29 29 28 28 26 24 23 23 24 23 22 22 21 21 21 17 14 14 17 19 18 18 17 15 12 10 10 11 13 13 11 9 15 31 58 85 86 70 60 49 40 40 41 39 37 32 27 23 18 17 17 18 18 20 23 25 23 19 15 13 12 12 12
22 22 22 23 23 24 24 24 24 24 24 24 24 25 25 24 24 24 25 26 26 27 28 28 29 30 31 30 29 28 26 24 23 24 24 23 21 22 21 21 20 17 14 14 17 19 19 17 17 16 13 9 9 11 14 14 10 11 20 34 65 87 80 65 45 33 43 44 35 29 25 23 19 16 14 14 13 13 15 17 17 16 16 16 15 15 15 15
22 22 22 22 23 23 24 24 24 24 25 25 25 26 27 26 26 26 26 26 27 28 28 29 30 30 31 33 32 31 28 26 25 23 24 25 22 21 21 22 21 20 17 15 15 17 19 18 18 17 15 12 8 10 14 16 13 9 15 27 51 71 76 71 44 28 43 44 32 25 22 22 19 17 16 15 16 19 21 21 21 21 18 16 15 14 13 12
23 22 22 22 22 22 22 23 23 24 24 25 25 26 27 28 28 28 27 27 28 29 29 30 30 31 32 34 35 33 31 28 27 25 24 25 24 23 21 22 22 21 20 17 15 14 17 18 18 18 17 15 11 9 13 17 16 9 10 21 39 57 73 73 42 28 44 41 29 23 22 23 20 19 17 19 26 29 30 29 26 25 21 18 17 16 15 14
22 22 22 22 23 22 22 22 22 23 23 23 24 25 26 27 29 29 29 28 28 29 30 31 31 32 33 34 36 35 34 32 29 26 25 25 25 24 22 22 22 22 21 19 18 15 15 17 18 19 17 17 15 11 12 18 18 12 11 14 30 54 61 49 28 30 43 37 29 26 27 31 29 26 28 42 56 47 34 33 32 30 28 25 21 18 16 16
20 20 21 21 22 22 23 23 22 22 22 23 22 23 24 25 27 28 29 29 29 29 30 32 32 32 33 34 36 36 35 35 33 29 26 26 26 25 23 22 22 22 21 20 20 18 15 15 17 19 18 17 18 14 11 16 20 16 13 12 21 34 32 25 27 38 39 27 24 23 28 38 37 40 49 66 79 66 44 37 35 33 32 29 25 22 19 17
20 19 19 19 20 20 21 21 22 22 22 22 22 22 23 23 24 25 27 28 29 28 29 31 32 32 33 35 35 36 36 36 35 32 29 27 27 27 25 23 22 22 22 20 20 20 18 15 14 17 19 18 18 18 12 13 21 21 15 13 15 20 24 29 39 49 41 24 18 18 25 35 39 52 67 70 70 64 51 42 37 34 34 33 30 27 22 17
27 24 22 20 19 19 19 19 19 20 20 21 21 22 22 23 23 23 24 25 27 27 27 28 30 31 32 33 35 35 36 37 35 33 30 28 28 28 27 25 23 23 23 22 20 21 20 18 15 14 18 20 18 18 16 12 16 22 20 14 15 21 28 33 42 53 42 24 21 17 18 29 41 59 71 64 58 56 52 46 43 45 43 36 30 24 18 15
36 34 31 28 25 23 21 20 19 19 19 19 20 20 20 21 21 22 23 24 25 25 25 25 25 27 29 30 32 34 35 37 36 34 31 29 29 29 28 26 24 24 23 22 21 21 21 20 18 15 14 19 19 18 19 15 11 16 20 17 16 18 22 27 35 45 34 21 23 18 14 22 36 51 54 51 51 50 49 48 51 55 47 33 25 19 16 14
42 40 39 37 34 31 28 25 23 21 21 20 20 20 20 20 19 20 21 22 23 23 24 24 24 23 25 26 27 31 33 34 35 34 32 30 30 29 28 28 26 25 24 23 22 21 21 21 20 18 15 15 19 19 19 19 13 10 15 17 19 20 22 25 29 34 31 24 20 17 17 20 28 42 46 43 43 40 39 45 54 55 40 27 24 22 21 19
45 44 43 41 40 38 35 33 30 27 25 23 23 23 23 23 22 21 20 20 20 21 21 22 23 22 22 22 22 27 29 30 32 33 33 31 29 28 27 28 28 26 25 24 23 22 22 21 21 20 18 14 15 18 19 22 19 12 10 12 19 27 29 30 32 33 32 30 27 26 31 36 40 48 47 38 34 33 35 45 53 48 34 28 28 28 27 26
52 50 47 45 43 42 41 38 36 33 30 29 28 27 27 26 26 26 25 24 22 21 20 19 20 21 22 20 20 25 24 24 27 30 33 31 28 28 28 28 29 27 26 25 24 23 23 22 21 21 21 18 14 15 18 22 23 17 12 9 17 34 42 43 46 50 48 44 38 32 33 40 42 39 36 34 35 38 41 46 47 41 33 32 35 35 32 32
58 56 54 51 48 46 44 42 40 37 35 33 33 32 31 30 29 30 29 28 26 24 23 21 20 19 20 19 19 23 23 21 23 27 31 31 28 28 28 29 29 28 26 27 26 24 24 23 22 21 21 21 17 15 15 19 24 21 16 12 14 30 43 47 53 63 69 67 57 41 30 29 28 31 41 43 41 41 40 40 41 39 33 35 41 38 32 33
53 54 54 54 53 52 49 47 43 40 38 36 35 35 35 33 32 32 33 32 30 28 27 26 24 22 20 19 19 21 20 18 21 27 29 29 27 27 29 30 29 29 27 28 28 25 25 24 23 22 21 22 20 17 15 16 20 22 19 16 15 22 30 32 35 42 53 65 67 55 46 42 35 45 59 46 31 30 30 32 37 38 37 42 47 40 29 25
42 44 46 48 49 51 51 50 47 42 40 40 39 38 37 35 33 33 34 35 34 32 30 29 28 27 24 22 21 20 18 16 19 25 27 27 26 25 28 30 28 28 29 29 29 26 25 26 24 23 22 21 22 20 18 15 16 19 21 20 19 21 24 23 21 21 26 35 39 37 47 60 61 68 69 41 22 24 28 30 34 39 46 53 55 46 32 23
32 34 36 38 40 42 44 45 45 43 41 41 42 42 41 38 34 33 33 34 35 34 33 33 31 29 27 26 25 23 20 16 17 21 23 24 25 24 25 27 27 27 30 31 30 27 26 27 25 24 23 22 22 21 20 18 15 15 19 22 22 22 23 21 18 16 16 17 18 19 29 47 62 67 54 29 18 20 25 32 37 42 50 55 58 57 49 39
27 29 29 31 32 34 36 37 38 38 38 40 42 43 44 43 39 36 34 33 33 33 34 35 34 33 30 28 27 25 23 20 20 20 19 20 21 22 23 24 25 26 29 31 29 27 26 27 26 25 24 23 22 21 21 21 19 15 15 19 23 25 25 24 21 18 15 13 12 12 14 24 36 36 26 19 16 15 16 23 32 39 43 45 48 52 53 51
22 24 25 26 27 28 30 31 32 33 33 34 37 40 41 43 43 41 38 35 33 33 33 35 36 36 34 31 29 27 25 24 24 22 20 20 19 19 20 22 25 25 28 30 28 27 27 28 27 25 24 23 23 22 21 21 21 19 16 16 19 23 26 26 25 23 20 18 16 14 13 13 18 16 12 13 12 12 14 13 18 25 27 30 30 32 34 35
16 18 19 21 23 24 25 26 27 28 29 29 31 34 36 38 40 42 42 39 36 34 34 34 35 37 36 34 32 29 27 25 25 24 23 23 22 20 18 20 22 24 28 30 28 25 26 29 27 24 25 24 23 23 22 22 21 21 19 17 16 18 23 26 26 25 23 22 22 24 21 13 17 27 28 24 17 13 16 16 15 16 17 21 22 22 21 20
12 13 14 15 17 19 20 22 23 24 25 26 27 29 30 32 34 37 40 40 38 37 36 34 34 36 36 34 34 32 30 27 25 24 25 25 24 23 21 20 21 23 27 29 27 24 26 31 28 23 24 24 24 23 22 22 22 21 21 20 17 15 16 21 25 25 25 24 23 27 29 23 29 45 47 42 34 21 18 20 20 20 21 23 24 24 23 22
12 12 11 12 13 14 15 17 18 20 21 22 23 25 26 27 29 30 33 36 36 37 38 36 35 37 35 33 34 34 33 31 27 24 24 24 24 24 24 23 23 23 24 24 25 25 27 31 26 21 23 24 24 24 23 23 23 22 21 21 21 18 14 16 19 21 23 25 24 25 28 28 32 42 41 36 36 29 23 24 24 25 25 25 25 24 23 25
14 14 13 12 11 11 12 13 14 15 17 18 19 21 22 24 25 26 28 30 30 31 35 36 36 37 35 32 32 33 35 34 30 27 24 23 23 24 24 25 26 25 23 23 22 23 26 29 24 20 23 25 25 25 24 24 23 23 22 21 21 20 17 15 15 18 19 22 25 26 27 28 28 32 30 26 28 28 25 27 29 28 27 27 27 26 25 25
16 16 15 14 13 12 11 11 11 12 13 14 15 16 18 20 21 23 24 27 27 25 28 32 35 35 33 32 32 33 35 35 33 30 27 25 23 23 23 24 27 27 26 25 22 22 24 25 22 20 23 26 25 25 26 25 24 23 23 22 21 20 20 18 15 15 16 17 21 25 27 29 28 27 28 27 26 27 26 27 29 28 28 29 29 28 28 27
19 19 18 16 15 14 13 12 11 11 11 11 12 13 14 16 17 19 21 23 24 23 22 26 30 32 30 29 31 33 34 33 33 31 28 27 25 23 22 22 24 26 28 27 25 23 23 22 20 21 23 25 26 26 26 26 24 24 23 22 21 20 20 21 19 17 16 16 19 23 26 29 30 30 29 29 28 28 27 27 28 28 27 28 28 28 28 29
22 22 21 20 18 17 15 14 13 12 12 11 11 11 12 13 13 15 17 19 21 21 21 21 24 27 27 26 28 30 32 33 33 30 29 28 26 24 23 22 22 24 27 28 27 26 25 22 19 19 22 25 26 26 27 26 25 25 24 22 21 20 21 21 20 19 17 17 18 20 21 23 26 30 33 33 33 30 27 26 27 27 27 26 27 27 27 29
24 24 24 23 22 21 18 17 15 14 14 12 12 11 11 11 11 12 13 15 17 18 19 19 20 23 24 23 24 27 32 34 31 29 30 30 28 25 23 22 23 23 25 26 28 30 28 25 21 19 21 24 26 27 27 27 26 25 23 22 21 20 21 21 21 21 20 19 20 18 18 18 21 25 29 33 35 34 30 29 27 27 29 29 28 29 29 30
30 27 27 25 23 23 22 20 18 17 16 15 14 13 12 11 11 11 11 12 14 15 16 17 17 19 21 22 21 24 29 31 29 29 31 30 27 25 24 23 23 23 23 23 28 34 32 28 24 21 20 23 25 26 25 25 26 24 21 20 22 21 21 21 21 21 20 21 22 20 18 17 18 20 21 25 30 31 29 30 29 27 26 26 26 27 27 27
38 34 32 29 26 26 25 22 21 21 19 18 16 14 14 12 12 11 11 12 13 13 13 14 15 16 18 20 20 21 25 28 28 28 30 29 27 26 24 25 24 22 22 21 26 31 30 27 25 21 20 22 24 23 22 23 24 23 20 19 20 21 22 22 21 21 20 22 23 21 20 19 18 19 18 19 22 23 23 25 27 26 24 23 22 22 22 22
47 43 40 36 30 28 28 24 23 23 23 22 19 17 16 15 14 13 12 13 14 13 12 12 13 14 15 18 19 19 22 24 25 26 28 29 29 28 26 25 23 21 20 20 23 25 25 25 23 21 22 23 22 20 20 22 22 21 18 19 20 21 22 22 22 22 21 23 24 21 20 20 19 20 19 18 20 20 19 20 21 22 21 21 20 19 20 19
55 50 48 45 38 33 30 27 25 26 25 24 23 20 19 18 16 15 16 17 15 13 11 11 11 12 13 14 16 18 19 21 22 23 25 27 28 29 28 26 24 21 20 20 22 24 23 22 22 22 25 25 23 21 21 21 21 20 19 19 21 21 22 23 23 24 23 25 25 21 19 20 20 20 20 20 21 20 19 19 19 18 18 19 18 18 19 19
64 58 55 52 49 42 34 30 29 28 27 27 25 23 21 20 20 20 22 20 17 13 12 11 11 11 11 12 14 15 17 18 19 20 22 24 26 28 28 28 26 24 22 22 23 25 24 23 24 24 26 28 27 24 23 22 21 21 20 20 22 23 23 25 25 25 26 26 26 23 20 19 19 20 21 22 22 22 22 22 21 19 18 17 17 17 18 19
72 66 62 57 57 53 43 37 33 29 30 30 27 25 24 23 25 30 30 23 17 14 13 12 11 11 11 11 12 13 15 16 17 18 19 21 23 25 27 27 27 25 24 24 24 25 25 24 24 26 27 29 31 29 26 24 24 24 23 22 23 25 25 26 27 26 27 27 28 26 23 22 20 19 19 21 21 22 23 23 23 22 21 19 18 18 18 19
80 73 69 63 63 66 57 46 38 33 33 32 30 27 25 27 35 41 35 24 17 15 15 14 13 12 11 11 11 12 13 14 15 16 17 18 20 21 24 25 25 25 23 23 22 23 23 22 22 24 26 30 34 35 32 29 27 26 25 24 23 26 26 26 27 27 26 27 25 24 25 27 24 20 20 20 19 20 20 21 22 22 22 22 21 20 20 20
85 80 75 68 68 77 74 58 45 39 35 35 34 29 27 35 47 47 35 25 21 18 17 16 15 14 12 11 11 11 12 13 14 15 15 17 18 19 21 23 24 25 24 24 23 23 22 21 22 22 23 26 29 34 36 33 29 28 26 24 23 26 27 25 25 26 26 25 24 23 24 28 28 26 25 23 20 19 18 19 19 20 21 21 20 20 20 19
88 83 80 75 73 80 86 74 55 44 40 39 36 33 35 44 50 46 35 27 25 21 19 18 16 16 14 12 11 11 11 12 13 14 14 15 17 18 19 20 22 23 24 25 24 25 23 23 24 22 22 23 22 26 33 33 30 29 26 26 27 27 26 23 22 24 24 23 24 25 25 28 30 29 29 29 26 24 21 20 19 19 19 19 18 18 18 18
90 86 81 80 80 82 88 87 70 52 46 43 40 43 49 50 48 47 39 31 27 24 22 21 19 18 16 14 12 11 11 12 12 13 13 14 15 16 18 19 20 21 22 24 24 25 24 24 25 23 23 25 24 25 31 32 30 28 27 28 27 23 21 20 20 21 21 22 25 27 27 28 30 30 31 30 30 29 27 25 24 23 22 20 19 19 18 18
91 90 85 83 86 85 88 91 82 66 53 47 47 54 58 56 53 50 40 31 29 28 26 24 22 20 19 17 15 13 12 11 11 12 13 13 14 15 16 17 18 19 20 22 23 24 24 24 25 23 22 24 24 23 25 28 28 28 30 30 25 21 20 20 20 20 21 22 25 28 27 27 29 31 31 30 31 31 30 30 30 29 29 27 26 25 25 23
96 93 90 87 89 90 89 89 85 78 66 57 59 63 63 61 58 50 39 33 31 31 29 27 24 23 22 20 17 14 13 12 11 12 12 13 14 15 15 16 17 18 19 19 20 22 23 24 24 23 22 23 22 19 18 22 24 26 31 30 26 24 23 23 21 21 22 23 25 28 29 28 30 31 31 31 31 31 31 32 32 33 33 32 32 32 32 31
103 99 96 93 93 93 92 89 86 85 80 73 71 69 66 65 61 52 43 36 34 33 31 29 27 25 25 23 20 17 15 13 12 11 11 12 14 15 15 15 16 17 18 18 19 20 21 22 23 23 23 22 22 18 18 22 23 23 29 32 31 30 28 27 26 25 25 26 28 31 31 31 32 32 32 32 32 32 32 32 33 33 33 34 34 34 34 34
108 106 100 98 99 97 93 90 88 88 87 85 83 78 73 71 69 63 51 40 36 35 33 31 29 28 27 26 23 19 16 15 13 12 11 12 13 15 15 15 16 16 17 17 17 18 19 20 22 23 22 22 22 21 21 24 23 22 26 32 35 35 33 29 26 26 28 28 30 32 32 34 35 33 32 32 32 33 32 32 33 33 33 34 34 34 34 35
109 110 105 102 103 100 94 91 89 86 89 93 93 88 81 77 77 72 60 47 41 38 36 34 32 29 29 28 25 21 18 16 15 13 12 12 12 14 16 16 16 15 15 16 17 18 19 19 20 22 21 21 22 23 23 24 24 22 22 26 30 30 29 26 24 28 30 27 28 29 28 31 34 34 32 32 32 31 32 33 34 34 35 35 35 35 34 34
106 108 107 105 105 103 98 94 89 86 88 94 95 95 93 91 88 83 72 60 52 45 39 35 33 30 29 29 27 24 20 17 17 15 13 12 12 13 15 16 16 15 15 15 16 17 18 18 19 20 21 21 22 22 22 23 23 21 19 22 25 26 28 28 28 31 29 24 25 25 25 29 35 35 33 33 34 34 34 35 35 36 37 37 37 36 36 36
104 106 107 106 107 107 102 96 91 88 89 92 95 100 104 102 98 95 87 73 60 49 39 35 34 32 30 30 29 26 23 19 18 17 14 13 13 13 14 15 16 16 15 15 15 16 17 17 18 19 20 20 21 21 20 20 21 21 20 22 24 25 28 29 29 29 25 22 24 24 25 32 38 38 36 37 39 39 38 38 38 38 38 39 38 38 38 38
104 107 107 105 106 108 105 100 95 92 90 91 94 100 104 103 104 104 94 79 66 55 44 37 35 35 32 31 30 28 26 22 20 18 16 15 14 13 14 15 15 16 16 15 15 15 16 17 18 19 19 19 20 20 20 21 22 22 23 23 24 25 26 27 28 26 23 23 26 27 31 38 43 43 43 44 44 43 41 41 41 41 41 40 40 39 40 40
103 106 106 105 105 106 107 103 99 96 93 93 94 96 98 101 105 106 97 85 75 65 53 41 36 37 35 33 32 31 29 26 22 20 18 17 15 14 14 14 15 16 16 16 16 15 15 16 16 18 19 19 19 20 21 23 24 24 25 25 25 27 28 28 28 26 25 26 26 28 33 37 38 40 43 45 45 44 42 41 41 41 40 40 40 41 43 44
96 101 102 103 102 103 105 104 100 96 92 93 95 94 96 100 104 105 100 92 85 78 68 52 40 38 39 35 33 32 31 28 25 23 21 18 17 15 14 14 14 15 17 17 17 16 15 15 16 17 18 19 19 20 21 22 23 24 25 26 27 28 28 28 27 27 28 28 26 28 31 31 32 35 39 41 42 41 39 38 37 36 36 40 44 45 46 46
84 91 95 97 96 97 101 101 98 94 90 91 94 95 98 101 103 103 99 96 94 91 81 64 46 40 40 37 33 32 32 31 28 27 24 20 19 17 15 14 13 14 16 17 17 17 16 15 16 16 17 18 19 19 20 20 21 22 23 25 26 26 27 27 27 27 28 26 25 27 29 29 30 32 33 33 34 32 32 33 32 32 36 41 46 48 48 49
69 79 86 89 89 89 93 98 100 99 94 91 94 98 101 101 101 101 99 98 100 98 90 75 55 42 39 38 34 33 34 33 31 31 28 23 20 19 16 15 14 13 15 16 17 18 17 16 16 16 17 18 19 19 19 19 19 20 22 23 24 25 26 26 26 27 27 26 27 28 28 28 29 30 29 28 27 27 28 30 32 34 38 42 46 48 49 50
53 65 75 83 86 83 83 90 97 101 97 92 95 101 102 100 100 102 100 99 101 100 94 84 64 45 37 37 35 34 35 35 34 33 31 26 21 20 19 16 15 14 14 15 16 18 18 17 16 16 16 17 18 18 19 19 19 19 20 21 23 23 24 25 25 25 26 25 26 27 26 27 27 27 27 26 26 27 27 28 30 32 35 39 42 43 43 44
40 49 59 72 83 84 82 86 94 101 100 96 97 101 102 100 100 100 100 100 102 100 96 90 73 50 38 36 35 36 36 37 38 37 34 29 23 21 20 17 16 15 13 14 15 16 19 19 18 17 16 17 18 18 18 19 18 19 19 19 21 22 22 23 24 24 25 25 26 27 26 26 27 27 27 26 26 26 26 27 27 27 29 32 33 34 35 39
28 34 40 51 64 70 73 78 88 100 105 102 100 99 100 100 100 101 100 100 102 101 99 97 81 54 39 37 36 36 38 40 42 40 36 31 25 23 22 19 17 17 14 13 14 15 18 19 19 18 17 17 20 20 19 19 18 18 18 18 19 20 20 22 22 23 24 25 25 26 25 26 27 26 26 26 26 26 25 25 25 25 25 26 27 28 30 35
Wind_Speed
25 24 24 23 22 21 21 20 19 19 19 18 17 16 14 13 12 12 11 11 11 11 12 13 14 15 16 16 16 15 15 16 17 19 20 21 23 24 26 27 27 27 28 28 28 29 29 31 31 30 27 24 21 17 11 5 5 12 16 16 14 14 13 11 11 11 13 15 16 16 15 14 14 15 16 17 18 19 19 20 20 21 21 22 23 23 23 22
28 28 27 26 25 24 23 23 22 21 20 20 20 19 18 16 14 13 13 12 12 11 11 12 13 15 15 16 16 15 14 13 15 16 17 18 20 22 23 25 26 26 26 27 27 28 28 29 30 31 30 27 25 23 18 11 3 7 14 18 17 15 14 11 9 9 10 11 13 13 12 10 11 12 13 13 14 14 15 15 16 16 17 18 18 18 17 17
32 31 30 29 29 28 27 26 25 24 23 22 22 22 21 20 18 16 14 14 13 13 12 12 13 14 15 16 16 16 14 13 13 14 15 16 17 19 21 22 23 24 25 26 26 26 27 27 28 29 30 29 29 28 24 18 9 1 8 15 18 17 15 10 7 6 7 9 9 8 7 7 8 9 10 10 11 11 10 10 9 10 10 10 10 9 9 9
35 34 34 33 32 31 30 29 29 28 26 25 24 23 23 23 22 20 18 16 15 15 15 13 13 14 14 16 17 17 16 14 12 12 13 15 15 16 18 20 21 22 23 24 25 25 25 26 26 28 29 29 30 30 28 23 15 6 2 10 16 17 14 9 7 7 7 9 7 4 4 6 7 8 9 10 10 9 7 5 4 3 3 3 3 4 4 5
38 37 37 36 35 35 34 33 32 31 30 29 28 26 26 25 24 24 22 20 18 17 17 16 14 14 14 15 17 17 17 16 13 11 11 12 14 14 15 17 19 20 21 22 23 24 24 25 25 26 27 28 29 31 30 26 20 11 4 6 13 14 13 10 8 7 8 6 5 4 5 8 9 10 11 10 7 6 5 4 2 1 1 2 3 4 5 6
40 40 39 39 38 37 37 36 35 34 33 32 31 30 29 28 27 26 25 24 22 20 19 19 17 16 16 15 17 18 18 17 16 13 11 11 12 13 13 14 16 18 19 20 22 22 23 23 24 25 25 26 28 30 30 28 23 17 9 4 8 10 11 10 9 8 8 6 4 5 7 9 10 10 9 7 5 3 3 2 1 1 1 3 4 5 5 6
41 41 41 41 41 40 39 39 38 37 36 35 34 33 32 31 30 29 28 28 26 24 22 21 20 19 18 17 18 19 19 18 18 16 13 11 11 12 12 12 13 15 17 18 20 21 22 22 23 24 24 25 26 28 29 29 26 21 14 7 6 8 9 10 10 10 9 6 4 3 5 7 7 7 6 6 5 3 2 1 1 1 1 3 4 5 6 6
42 42 42 42 42 42 41 41 40 39 39 38 37 36 35 34 33 32 31 30 30 29 26 24 23 22 21 19 19 20 20 20 20 18 15 13 12 12 12 11 11 13 15 16 17 19 20 21 21 22 23 24 25 26 28 29 27 23 17 10 7 8 9 10 10 10 8 5 3 2 4 4 5 5 7 6 4 3 2 1 1 1 2 3 4 5 5 6
44 43 43 43 43 42 42 42 42 41 40 40 39 38 37 37 36 35 34 33 33 32 30 28 26 25 24 22 21 21 21 21 21 20 18 15 13 13 12 12 11 11 12 13 15 16 18 19 20 21 22 23 23 24 27 28 26 24 19 14 10 9 10 11 11 10 6 3 2 3 3 3 4 5 5 3 3 2 2 1 1 1 1 2 3 3 3 4
47 46 45 45 44 44 43 43 43 42 41 40 40 39 39 39 38 37 36 36 35 35 34 32 30 29 27 26 24 23 23 23 23 22 21 18 16 15 13 13 12 10 11 12 12 14 15 17 18 19 20 21 21 22 24 25 25 23 21 18 16 15 15 13 11 9 5 2 1 2 3 3 4 4 3 2 1 2 2 1 1 1 1 1 0 1 3 3
51 50 49 48 47 47 46 45 44 43 42 41 40 40 40 40 38 38 38 38 38 37 37 35 34 32 30 30 28 26 26 26 25 24 23 20 18 17 15 14 14 12 11 11 11 12 13 14 16 17 18 19 19 20 21 23 23 22 21 20 20 22 20 15 10 8 6 2 1 2 2 2 2 3 3 2 2 2 2 2 3 4 3 3 2 4 6 6
55 54 53 53 51 50 49 48 47 45 44 42 41 41 41 40 39 38 38 38 39 39 39 38 37 36 34 33 30 29 30 29 27 25 24 23 21 19 17 15 15 14 12 11 11 11 11 12 13 15 16 16 17 17 19 20 21 20 20 20 22 24 21 16 13 10 6 2 4 4 2 2 2 3 3 2 2 2 3 4 5 6 5 4 4 7 9 9
59 58 58 57 56 55 54 53 51 49 47 45 43 43 43 42 41 40 39 38 38 39 39 39 39 38 37 35 31 33 34 31 29 27 25 26 24 22 20 18 17 17 15 13 12 11 11 11 11 12 14 15 15 15 16 18 19 18 18 20 23 23 19 16 14 11 8 3 1 3 2 4 4 4 5 4 4 4 4 5 6 6 6 6 8 9 11 12
63 62 62 61 60 59 58 57 56 54 51 49 47 47 47 46 44 42 41 40 39 39 39 39 39 38 39 37 34 37 38 33 31 28 27 28 27 25 23 20 19 19 17 15 14 12 11 11 10 9 11 12 13 14 14 15 16 15 15 18 22 21 17 13 10 8 7 6 5 4 4 5 6 7 7 5 4 4 5 5 6 5 6 8 10 12 12 13
66 66 65 65 64 63 62 62 60 58 56 54 52 51 51 50 48 46 45 44 42 41 40 40 39 38 40 37 36 40 40 34 32 31 31 30 30 28 25 23 21 21 20 17 16 14 12 12 11 9 9 10 11 12 12 13 12 12 13 15 20 20 17 12 9 7 6 6 5 6 8 8 8 8 7 4 4 5 5 5 6 6 7 9 11 12 13 13
70 70 69 69 68 67 66 66 65 63 60 58 57 56 56 55 53 50 49 48 47 45 42 42 41 40 41 37 37 42 40 35 33 35 36 33 33 31 27 26 24 22 21 20 19 17 14 13 13 10 9 8 9 10 10 10 10 10 11 13 16 18 15 12 11 10 9 7 5 5 7 9 8 7 6 5 6 8 8 8 8 9 9 9 10 11 12 12
73 73 73 72 72 71 70 70 69 67 64 62 61 60 60 60 58 55 53 52 51 49 46 46 44 43 43 39 38 43 40 35 35 38 39 37 36 34 31 30 27 25 23 22 22 20 17 15 14 12 10 9 8 8 8 8 8 8 10 10 12 14 12 10 9 9 9 9 7 7 8 9 8 7 6 6 8 10 10 10 10 9 9 8 8 9 9 9
75 75 75 75 75 74 74 74 73 72 69 66 65 64 64 64 63 60 59 57 55 53 51 50 49 47 46 42 41 44 41 36 37 40 40 39 38 37 35 32 30 28 26 25 26 23 20 18 17 15 13 11 9 8 8 7 7 7 8 8 9 10 9 8 7 6 6 6 6 7 9 11 10 8 7 7 7 8 9 9 9 8 7 6 6 6 5 5
77 77 78 78 78 77 77 77 77 76 74 71 69 69 68 68 66 65 64 63 60 58 55 54 53 52 51 47 44 45 42 39 39 41 40 39 39 38 36 34 32 31 29 29 29 26 23 21 21 18 15 14 11 9 9 7 6 6 5 6 6 6 6 5 5 4 3 3 3 4 6 9 10 8 6 5 4 5 6 7 8 7 6 5 4 4 3 3
79 79 80 80 80 80 79 79 79 78 77 75 73 73 72 71 70 69 68 67 65 63 61 59 57 57 56 53 48 47 45 42 42 42 41 41 39 39 37 35 34 33 33 34 33 29 25 25 26 22 18 16 13 12 11 9 8 6 5 4 3 2 2 2 2 2 2 2 2 3 3 6 8 7 5 3 2 3 4 5 6 6 6 5 5 4 4 3
78 80 81 82 82 82 81 82 82 81 80 78 76 76 75 75 74 73 72 72 70 67 66 64 61 61 61 57 53 51 49 47 45 45 44 43 41 40 37 35 35 35 37 38 36 32 28 30 31 25 21 19 16 15 14 12 11 9 7 5 4 3 1 1 1 1 2 2 2 3 3 3 4 3 4 4 2 2 3 4 5 4 4 4 4 4 4 3
73 76 79 81 83 84 83 84 84 84 83 82 80 79 78 77 77 76 75 76 74 71 70 69 65 66 66 61 57 55 53 51 51 49 47 45 43 41 39 37 36 38 40 39 37 35 33 37 36 28 24 22 19 19 17 15 14 12 11 9 7 7 5 4 3 3 2 1 2 2 2 1 1 2 5 5 3 2 2 3 3 3 2 3 3 3 3 3
65 69 72 76 79 82 83 84 85 86 85 85 83 82 80 80 79 78 77 78 79 75 73 72 70 70 70 65 61 58 57 57 56 53 49 48 46 44 42 40 38 39 41 40 38 38 39 42 39 31 26 25 23 22 20 18 17 16 16 13 11 11 9 7 6 5 5 3 2 2 2 2 2 3 4 4 4 3 2 1 1 1 1 2 2 2 2 3
58 61 65 69 73 76 78 81 83 85 86 86 86 85 84 83 81 80 78 79 83 80 75 74 74 75 74 69 64 62 62 62 60 58 53 52 51 48 45 44 42 41 40 41 40 40 44 46 40 33 30 28 26 25 23 23 21 20 19 18 16 13 11 11 8 7 6 5 4 4 3 3 4 4 5 5 5 4 3 3 2 2 2 3 4 4 4 4
52 54 58 62 66 70 72 75 78 80 83 85 86 87 87 86 84 83 81 80 84 85 80 76 76 78 77 72 67 66 66 65 65 63 58 56 56 52 49 47 45 43 42 42 41 41 47 48 40 35 34 31 30 29 27 27 25 23 23 22 20 16 14 14 12 10 9 6 6 6 5 5 5 5 6 6 7 7 6 5 5 5 5 5 5 6 6 6
48 49 52 55 59 64 67 69 72 74 78 80 83 85 87 87 87 85 84 82 85 89 85 80 78 80 80 76 71 69 68 68 70 68 62 61 60 57 53 50 48 46 45 45 42 42 48 49 40 36 37 35 34 32 32 31 29 28 28 26 22 18 16 16 15 14 11 8 8 9 8 7 6 6 6 7 8 9 9 7 7 7 7 7 7 7 7 8
48 47 48 50 52 56 61 64 66 68 72 74 77 81 83 86 86 86 86 85 87 91 89 84 81 80 81 79 74 71 70 73 73 70 66 65 65 61 57 54 52 51 49 47 44 43 49 50 42 38 39 38 35 35 36 35 33 34 33 28 24 21 19 18 17 17 14 11 11 12 11 10 9 8 7 7 9 11 10 10 9 8 8 8 8 8 8 8
53 51 50 49 48 51 55 58 60 63 66 70 73 75 77 81 82 84 85 85 89 94 92 88 85 82 81 80 78 73 73 76 76 71 71 71 69 66 61 58 57 55 53 50 47 46 51 52 45 41 41 39 38 40 40 38 37 39 35 30 27 24 21 19 19 20 17 14 16 17 14 12 11 11 10 9 10 12 11 11 11 11 10 9 8 8 8 9
57 55 54 52 49 49 52 53 54 56 61 65 69 70 72 75 77 79 81 83 89 95 93 90 88 85 82 82 80 77 75 78 78 75 74 74 71 68 66 63 62 60 56 53 50 51 55 55 50 44 41 41 42 43 43 40 41 42 36 31 29 26 23 21 20 21 18 16 21 22 18 16 13 13 13 11 11 13 13 12 13 13 13 12 11 10 10 10
58 58 58 57 54 51 52 50 48 50 55 60 64 67 69 71 73 75 76 79 87 92 92 92 90 88 85 83 82 80 79 81 81 78 77 76 74 71 70 68 66 63 59 55 54 55 56 57 53 46 42 42 44 45 43 42 44 43 36 32 31 27 26 24 23 22 19 19 26 25 22 20 17 17 17 13 13 15 15 15 15 15 15 15 14 13 13 13
59 59 59 59 58 56 54 50 47 48 51 54 58 62 65 67 69 70 71 76 84 87 89 90 90 89 88 86 84 82 82 83 83 80 79 78 77 74 73 71 69 65 61 58 56 57 58 58 55 49 45 44 46 46 44 44 46 44 37 34 33 30 28 27 26 24 21 25 31 28 24 24 22 21 19 17 18 18 17 18 19 18 18 17 16 15 15 16
59 59 59 59 60 60 58 53 49 50 51 52 54 57 60 62 62 63 67 74 80 82 84 87 88 89 89 89 87 85 85 86 84 82 81 81 80 77 75 74 72 69 65 61 60 59 58 58 57 53 49 47 47 47 46 45 46 44 39 36 35 33 31 30 29 28 27 31 34 30 26 26 26 23 22 21 22 21 20 22 23 22 21 21 19 18 18 19
60 60 61 60 59 61 60 57 55 53 52 53 52 53 56 56 54 56 62 70 76 78 80 81 84 86 88 90 90 88 87 88 87 85 84 83 82 80 78 77 75 72 69 67 65 63 61 61 61 57 53 50 49 48 47 46 46 46 43 40 38 37 35 34 33 33 33 35 37 33 27 27 30 27 24 25 24 23 24 25 27 26 25 25 23 22 22 22
62 61 62 61 60 60 61 61 59 56 55 55 53 51 51 49 48 53 59 67 73 75 75 76 79 82 85 89 91 90 90 90 89 87 86 85 83 82 81 79 77 75 73 71 69 67 66 65 63 60 56 54 51 49 49 49 49 49 47 44 42 40 39 38 38 37 38 38 38 34 28 28 34 31 25 26 27 27 28 28 29 29 29 28 27 26 26 26
64 63 63 63 61 60 61 62 62 60 57 57 56 51 46 45 49 54 58 64 69 71 72 73 76 79 82 86 89 90 91 92 91 90 88 87 85 83 82 81 79 77 76 74 71 69 68 66 65 64 61 59 57 54 54 54 52 51 50 47 42 41 42 43 42 41 41 39 37 34 29 31 37 33 28 30 31 31 31 31 32 32 32 32 31 30 30 29
66 65 64 64 63 61 61 62 63 62 60 59 57 52 48 49 52 54 57 60 64 67 69 71 73 75 78 82 85 88 91 93 94 92 90 88 86 85 84 83 82 79 78 76 74 72 70 67 68 68 65 63 62 60 60 60 56 54 53 48 44 46 48 47 44 42 42 39 36 35 33 33 36 35 33 33 34 34 34 34 33 34 35 36 35 34 34 32
67 67 66 65 64 63 62 63 64 64 62 60 57 54 53 54 54 56 58 59 60 63 65 67 70 73 76 79 82 85 89 93 94 93 92 91 88 86 85 84 83 82 80 79 77 75 73 71 72 71 68 66 67 65 63 63 61 58 54 50 51 53 51 48 45 42 40 38 37 37 37 35 35 36 37 36 36 37 37 35 35 35 37 39 38 38 36 35
69 70 69 67 65 65 64 64 65 65 64 61 57 55 56 56 58 60 60 58 57 58 60 63 66 70 74 77 79 83 87 91 93 94 94 92 89 87 86 86 85 84 82 82 80 78 76 75 75 75 72 71 71 69 66 65 63 60 56 55 57 56 51 47 44 41 39 38 37 39 39 37 35 38 40 39 39 39 38 37 37 37 39 40 40 39 38 38
72 72 71 69 68 67 66 66 66 65 64 61 58 57 57 58 62 63 61 58 55 55 56 59 63 67 71 75 78 81 84 88 92 93 94 93 90 89 89 88 87 86 85 85 82 80 78 77 77 78 77 76 76 73 67 64 64 62 60 60 60 58 53 50 47 43 41 38 37 39 39 37 37 40 42 41 40 40 40 39 39 40 41 42 41 41 41 40
73 73 72 71 70 69 67 67 66 65 64 61 59 59 58 59 62 64 63 59 55 54 54 55 59 63 68 73 78 80 82 86 89 91 93 93 92 91 92 91 89 89 88 87 85 83 81 79 78 79 80 79 77 73 66 64 67 67 65 63 62 60 56 54 51 48 45 41 39 40 39 38 40 43 43 43 42 42 42 41 41 42 43 44 44 44 43 43
74 75 74 73 72 71 70 68 67 66 64 61 60 60 59 60 62 64 64 60 56 54 53 53 55 60 65 72 77 80 82 84 87 89 90 92 93 93 94 93 92 92 91 89 87 85 83 80 79 80 82 79 75 72 68 68 72 72 68 65 64 63 61 58 55 52 49 46 44 42 41 41 44 46 45 44 44 45 44 43 43 44 45 46 46 46 45 46
76 76 76 75 74 74 72 70 68 67 65 62 61 61 61 61 61 63 64 62 58 56 54 52 53 58 63 70 76 81 82 82 85 87 87 90 92 94 95 95 94 94 93 90 87 85 84 82 81 82 82 78 75 75 73 73 75 75 72 68 66 66 64 61 57 54 52 50 48 47 44 43 45 46 46 45 45 45 45 44 44 45 46 47 48 47 48 48
77 78 78 76 75 76 74 71 70 68 66 64 63 62 61 61 61 62 64 63 61 60 57 53 53 57 62 68 75 80 80 80 83 84 85 87 90 93 96 96 95 95 93 90 88 87 86 85 82 82 82 79 79 79 78 77 78 77 73 68 66 66 63 61 58 57 56 54 52 50 45 42 45 47 46 45 45 44 45 45 46 47 48 49 49 49 49 50
79 80 80 77 76 77 75 73 71 69 67 66 64 63 61 61 60 61 63 64 64 63 59 53 52 55 60 66 73 77 79 80 81 83 84 85 87 91 96 98 96 95 93 90 89 89 88 85 82 82 84 83 82 82 81 78 77 75 71 67 66 65 64 63 62 61 60 57 54 51 46 43 46 48 47 46 47 47 47 48 48 49 50 50 50 50 51 51
80 81 81 78 77 77 75 73 72 70 68 67 66 64 63 61 60 62 65 66 66 65 61 56 53 55 59 64 69 74 77 79 81 82 82 84 86 90 95 98 98 96 93 90 89 90 89 86 84 85 86 84 82 80 77 74 73 73 70 68 67 67 68 67 65 64 62 58 56 53 48 47 49 50 50 51 51 50 50 50 50 50 51 51 51 51 52 52
80 80 80 79 77 76 74 73 72 70 69 68 67 66 65 63 62 63 65 67 67 66 64 59 56 55 58 61 64 70 75 78 79 80 82 84 86 88 93 97 98 96 93 91 91 92 91 89 87 86 86 84 80 77 75 74 75 75 72 70 70 70 70 70 70 67 63 60 59 56 53 53 52 52 52 54 54 52 51 51 51 51 52 51 51 53 53 53
80 80 80 79 77 75 74 73 72 71 69 68 68 67 67 66 65 65 66 67 67 67 66 64 60 57 57 59 62 66 72 76 77 79 81 84 85 87 91 95 97 97 95 93 94 94 92 90 88 87 85 84 81 79 79 79 78 77 75 74 73 74 74 75 73 69 65 64 62 58 56 55 53 53 54 55 55 54 53 53 53 52 52 51 53 54 54 54
81 81 81 81 79 76 76 75 74 72 71 70 69 69 69 69 68 68 67 67 68 69 69 68 64 59 58 59 60 63 68 73 75 77 80 83 85 86 89 93 96 97 96 96 95 94 93 90 88 87 86 84 83 82 82 82 81 80 78 77 77 76 77 76 74 70 68 66 62 59 60 58 55 55 56 55 55 55 54 54 54 52 52 53 55 56 55 55
84 83 84 84 82 80 78 77 76 75 74 73 72 71 71 71 70 70 70 70 71 72 72 70 68 63 59 58 58 59 64 70 73 75 79 83 84 86 89 92 94 96 98 98 96 95 93 90 88 88 86 85 84 83 84 84 83 82 80 80 79 78 78 78 76 73 70 68 64 62 63 61 58 57 56 55 56 56 55 55 54 53 54 56 57 58 57 57
87 86 86 86 85 84 83 81 79 78 78 76 75 74 74 73 73 73 74 75 75 75 74 72 71 67 61 58 56 57 61 67 71 74 78 82 84 86 89 90 91 94 97 99 98 95 92 89 88 88 87 86 86 85 84 84 84 82 81 80 80 80 79 79 77 74 72 69 66 66 65 61 59 58 57 57 57 56 56 55 55 55 56 59 60 60 59 59
91 90 90 89 89 89 88 85 83 82 82 81 79 77 77 77 78 78 79 80 79 78 76 75 74 70 64 59 57 57 60 64 68 72 76 80 84 86 88 89 89 92 96 98 98 96 92 89 89 89 88 85 84 85 84 84 85 84 82 81 81 80 79 78 76 75 73 71 68 67 65 61 58 59 59 59 58 58 57 57 57 57 59 61 62 61 60 60
94 94 94 93 93 93 93 91 88 86 86 86 84 83 83 83 83 84 84 83 82 81 78 77 77 73 67 62 59 57 58 61 65 70 75 79 82 85 87 88 88 90 93 96 98 96 93 91 90 90 88 83 82 84 84 86 88 87 83 81 80 80 79 78 77 75 74 72 70 67 63 60 60 61 61 60 60 59 60 60 60 61 62 63 63 63 62 63
Wind_Direction
248 249 251 252 253 255 256 258 261 265 269 272 273 273 274 277 283 291 298 306 314 321 328 334 337 340 345 350 356 7 19 27 28 25 26 30 31 31 33 31 31 34 35 35 36 36 35 36 35 33 34 37 38 31 18 353 247 231 228 224 223 224 223 229 240 241 242 243 242 241 240 243 250 253 253 255 257 260 264 267 269 271 273 274 276 278 279 280
246 247 248 250 252 253 254 255 257 260 264 269 272 273 272 272 274 279 287 294 300 306 314 322 327 332 335 339 343 350 3 16 23 23 21 25 29 29 30 31 30 31 32 33 33 34 34 35 35 33 30 31 34 34 28 21 353 232 228 223 220 222 220 219 234 245 248 248 246 242 241 247 256 257 255 255 257 260 261 263 266 269 272 275 278 280 282 285
245 246 246 247 249 250 252 253 254 255 257 262 267 271 273 273 272 271 275 282 290 295 301 308 314 320 326 329 332 336 344 359 12 18 17 17 23 27 28 28 28 29 30 31 31 32 32 33 34 33 30 28 31 35 34 31 28 329 226 220 216 217 216 212 220 227 232 238 239 238 244 254 258 254 249 247 248 248 248 252 259 264 270 276 280 285 290 296
247 246 246 246 247 247 249 250 252 252 253 255 258 263 268 271 272 272 270 271 277 285 290 295 302 308 315 319 322 325 330 340 353 5 11 10 14 22 25 25 25 26 28 29 29 29 30 31 32 33 31 27 28 32 35 37 37 35 222 212 210 208 203 201 205 198 202 215 214 210 228 235 237 231 224 224 224 222 214 215 229 247 262 275 295 314 320 321
250 249 249 248 248 247 248 248 249 250 251 252 253 256 259 264 268 270 270 270 269 274 280 285 290 296 302 309 312 315 319 325 333 345 360 4 4 12 20 22 21 22 25 27 27 27 27 28 29 31 32 29 27 30 34 38 41 46 64 191 197 193 186 186 189 180 176 182 173 170 196 208 213 213 207 202 198 192 180 171 168 177 327 347 355 350 338 328
253 252 252 251 250 250 249 249 249 249 250 251 251 252 254 257 260 263 267 268 267 268 272 276 280 285 290 296 301 305 309 314 319 326 339 351 354 359 10 17 17 16 19 24 25 25 25 26 27 28 30 31 29 29 34 38 42 47 58 133 174 171 167 165 160 154 145 137 140 161 190 199 204 205 192 170 153 153 149 141 133 94 7 1 355 344 333 322
255 255 254 254 253 252 251 251 250 250 250 251 251 252 252 254 256 258 261 264 265 265 265 269 273 276 280 285 290 295 300 305 308 312 320 332 341 346 355 8 14 12 12 18 22 23 23 23 25 26 26 30 31 28 31 38 43 46 51 75 123 140 142 136 134 133 123 119 131 165 195 191 189 183 152 127 123 132 132 133 114 72 7 349 340 331 322 313
258 257 256 256 255 255 254 253 252 252 251 251 251 252 252 253 254 255 257 260 262 263 262 263 265 269 272 276 280 285 290 295 298 301 306 314 324 331 339 351 5 7 5 10 18 20 20 21 22 23 24 26 30 31 29 34 43 49 50 62 99 118 115 110 114 114 106 110 130 185 203 176 157 144 128 121 123 136 159 167 100 51 1 333 322 319 315 306
259 259 258 258 257 257 256 255 255 253 253 252 252 252 252 253 253 254 255 257 259 261 261 260 260 262 265 268 271 276 281 285 288 292 296 302 310 317 325 334 347 358 357 1 11 17 17 18 19 21 23 23 27 32 31 31 37 47 51 56 78 98 97 98 103 101 95 99 127 199 199 167 154 142 136 136 132 155 179 165 79 16 330 307 313 326 335 324
260 260 259 259 259 258 257 257 256 255 254 254 253 253 253 252 252 253 254 255 256 258 259 260 259 258 259 261 264 267 273 276 280 284 288 293 299 304 312 319 327 340 346 350 0 10 12 15 16 17 21 22 23 30 33 30 31 39 48 52 63 76 79 82 93 98 95 86 112 213 195 169 165 151 157 163 158 192 207 195 200 222 229 236 244 74 62 47
260 260 259 259 259 259 258 257 257 256 256 255 254 253 253 252 251 251 252 253 254 255 256 257 258 258 257 257 258 261 264 267 272 276 280 285 289 293 299 307 313 320 330 337 345 358 5 9 13 13 16 21 22 27 33 32 28 32 41 47 55 64 69 70 75 83 83 56 319 266 219 162 147 145 163 179 187 209 216 204 194 192 188 187 150 106 89 79
259 259 259 259 259 259 258 258 257 256 255 255 255 254 253 252 252 251 250 251 252 254 254 254 255 256 257 256 256 258 259 260 264 268 274 279 281 285 290 295 301 307 314 323 331 342 350 358 8 10 11 16 20 24 31 32 27 26 34 42 50 58 63 65 64 65 65 24 287 273 247 171 153 153 163 169 164 173 189 188 186 182 171 155 122 99 91 85
260 259 259 259 259 259 259 258 257 256 255 255 254 254 253 253 252 251 251 250 251 252 253 254 254 254 255 256 256 256 257 257 258 262 268 273 275 278 282 286 292 297 301 309 316 325 334 341 356 5 5 9 15 20 28 33 28 22 27 40 50 57 57 55 58 61 66 68 281 260 220 195 183 163 145 134 136 147 166 175 178 176 159 133 108 95 91 90
260 259 259 259 259 258 258 258 258 257 256 255 254 253 253 253 252 252 252 251 251 250 252 253 254 254 255 255 255 256 257 256 257 259 262 266 269 272 275 279 284 288 291 298 304 309 317 323 335 353 358 1 7 14 23 31 29 22 23 39 52 61 60 51 51 62 77 87 78 77 107 144 154 141 127 126 136 145 154 161 165 162 142 123 109 98 93 93
259 259 259 258 258 258 258 258 257 257 256 256 255 254 253 253 252 252 252 253 252 251 251 252 253 254 254 254 254 256 256 256 257 257 257 259 263 265 268 272 275 279 284 290 293 295 302 308 315 329 342 352 358 5 17 25 26 23 23 37 51 61 67 62 55 63 78 88 82 79 94 109 119 116 109 104 111 115 125 138 141 133 122 116 110 102 97 95
259 258 258 258 258 257 257 257 257 256 256 255 255 254 254 254 252 251 251 252 252 252 252 252 252 253 253 252 253 255 255 255 256 256 255 255 257 259 261 264 266 270 276 282 284 285 289 295 300 307 318 332 344 352 5 16 19 22 24 35 50 58 64 65 59 61 68 78 86 93 104 111 111 105 100 96 92 92 97 107 113 113 111 110 107 102 98 96
258 258 258 258 257 257 257 257 257 256 255 254 254 253 254 254 253 252 251 251 251 252 252 252 252 252 252 251 251 254 254 253 254 255 255 253 254 256 255 257 259 262 267 272 274 276 279 283 287 292 297 305 321 334 345 2 7 15 23 30 47 56 58 58 54 58 67 73 77 83 96 107 108 106 105 102 91 85 89 97 103 107 109 110 108 104 99 95
259 259 258 258 257 257 257 256 256 256 255 254 253 252 252 253 253 252 252 251 250 250 250 251 252 252 252 250 250 253 253 252 253 254 255 254 255 256 256 256 257 259 261 265 267 269 272 274 276 278 282 287 295 310 320 336 350 2 18 24 39 54 56 51 45 49 64 72 72 77 88 97 103 104 102 100 90 81 83 89 96 100 101 103 102 103 100 94
259 259 259 258 258 257 256 256 256 256 255 254 253 252 252 251 252 252 252 251 250 250 249 249 251 251 252 250 248 251 252 251 251 252 253 255 255 256 256 256 256 257 259 260 262 263 266 269 269 269 272 275 278 286 296 307 322 337 356 14 25 45 56 49 41 35 46 69 68 67 81 95 102 103 98 95 91 86 83 83 88 92 90 84 76 74 75 73
258 258 258 258 258 257 257 256 256 256 255 254 253 253 252 251 251 251 251 251 251 250 249 248 249 250 251 250 249 249 250 249 249 250 252 252 253 254 255 255 255 256 256 257 258 259 262 265 263 261 263 265 267 271 277 286 294 302 318 339 347 7 48 36 26 18 15 45 58 57 68 95 105 98 77 61 67 86 94 92 90 91 90 84 72 64 63 61
258 258 257 257 257 257 257 257 256 256 255 254 253 252 252 252 251 250 250 250 250 249 249 248 247 248 249 249 248 248 249 249 249 249 250 250 250 252 252 252 253 254 253 254 256 258 259 260 259 256 257 259 261 264 266 272 278 281 283 285 288 283 264 261 279 296 326 5 35 61 74 106 115 78 14 359 1 47 84 95 90 91 91 85 82 78 73 72
260 259 258 257 256 256 256 256 256 256 255 254 253 252 251 252 251 251 250 250 249 248 248 248 247 247 247 247 247 248 248 248 248 247 247 249 249 249 250 249 249 251 252 253 255 256 255 255 256 254 254 255 257 259 261 263 266 269 269 266 267 264 256 245 254 264 269 304 353 31 55 114 197 310 331 338 340 5 60 81 76 73 71 68 77 80 71 71
261 260 259 258 257 256 255 254 254 255 255 255 254 252 251 251 251 251 250 251 250 248 247 248 248 246 246 246 245 246 248 247 247 246 246 248 248 247 247 247 246 247 250 252 252 253 253 252 254 254 252 253 255 257 258 258 258 261 262 260 257 258 260 253 249 257 263 267 281 310 328 319 305 308 327 341 343 341 357 37 56 43 8 1 10 13 20 30
261 261 260 260 259 257 256 255 254 254 253 253 253 253 252 251 250 250 249 250 251 250 246 246 247 247 246 245 244 244 245 246 247 246 245 246 247 246 246 246 245 245 247 249 250 251 252 252 254 255 253 252 254 255 255 255 254 255 257 256 254 254 258 258 251 250 258 265 268 269 282 293 302 311 317 326 331 324 317 316 311 307 305 308 322 334 344 351
264 262 261 260 259 259 257 256 255 254 253 253 252 252 251 251 250 249 248 248 250 251 248 244 245 247 247 245 243 243 244 245 246 245 243 243 245 244 244 244 244 245 245 247 248 249 252 253 253 254 252 251 251 252 252 252 252 253 253 251 251 251 255 259 258 252 251 258 264 262 261 270 282 296 305 312 311 301 297 298 300 300 302 306 314 326 333 336
269 267 264 261 260 259 258 257 256 255 254 253 252 251 251 250 249 249 248 247 248 250 249 246 244 245 247 246 243 243 243 244 244 244 243 243 243 242 242 242 243 244 244 245 246 247 251 254 252 252 251 250 249 251 252 252 252 251 249 246 247 247 251 257 259 259 255 253 257 258 257 261 265 273 285 296 295 292 295 295 292 295 300 304 309 314 318 319
278 274 270 266 263 261 258 256 256 255 255 254 253 252 251 250 249 248 247 246 247 248 249 247 244 244 246 246 244 242 242 243 243 243 243 242 242 242 241 241 241 242 243 244 245 246 250 253 251 249 249 248 248 249 249 249 249 249 247 244 243 243 245 252 258 261 259 257 260 258 255 254 255 256 261 271 278 284 292 294 290 289 291 296 302 306 308 310
285 282 278 274 269 266 262 257 255 254 254 254 253 252 252 250 249 248 247 245 245 247 247 247 246 244 244 245 245 242 241 243 243 242 242 242 241 241 240 240 240 241 241 241 242 243 247 250 248 245 246 245 244 245 246 247 247 249 247 245 243 241 241 245 253 259 260 262 262 257 253 253 252 253 251 252 265 274 282 287 287 286 285 288 292 296 300 302
286 285 283 280 276 272 268 262 256 254 253 253 253 252 252 251 249 248 246 245 244 245 245 245 246 244 243 243 244 242 240 242 243 242 241 242 241 241 240 239 239 239 239 239 240 242 246 249 248 246 245 244 243 245 247 247 247 249 249 247 246 243 240 239 244 253 259 263 262 257 254 252 250 255 256 252 258 266 270 272 275 280 283 284 285 288 292 292
284 284 284 283 281 278 274 269 263 257 253 252 251 251 250 250 249 248 246 244 244 244 244 244 244 244 242 241 241 242 240 240 242 241 241 241 241 240 240 240 239 238 238 239 240 242 246 249 250 249 247 245 245 247 248 248 249 251 251 251 250 248 244 241 239 246 252 257 258 256 255 255 251 252 257 259 260 262 265 266 266 268 272 275 279 284 286 283
282 282 282 282 282 280 278 275 271 264 257 253 251 249 248 248 248 247 245 243 243 244 244 243 242 242 242 241 240 240 240 240 241 241 241 241 241 240 240 240 240 239 238 239 241 244 246 250 251 251 248 246 248 249 248 249 251 253 253 252 252 250 248 245 242 241 243 249 254 255 255 257 254 253 257 259 259 260 265 268 265 262 262 265 270 276 279 278
280 280 279 280 280 281 280 278 274 269 263 257 252 249 248 246 246 247 244 243 243 244 244 243 242 241 241 240 239 238 239 240 240 240 240 240 240 240 239 239 239 239 238 238 241 244 246 249 251 250 247 246 247 249 248 248 251 253 253 251 251 251 250 248 245 242 239 244 252 252 252 256 256 256 258 258 259 263 267 269 268 266 264 263 264 265 269 274
278 278 277 277 278 279 279 278 275 271 268 264 257 251 248 246 246 248 246 244 244 244 244 243 242 241 240 240 239 237 237 239 240 239 239 239 239 239 239 238 238 238 237 237 238 240 242 245 246 247 246 245 246 248 248 248 249 250 250 248 247 248 247 246 245 242 239 242 247 248 248 255 257 253 254 258 262 265 266 268 270 271 269 267 266 265 266 270
276 276 276 275 275 276 277 277 276 273 271 268 263 256 250 249 252 254 250 245 245 244 244 243 242 241 239 239 238 237 236 236 238 238 238 239 239 239 239 239 238 238 238 237 236 238 239 242 244 245 245 244 243 245 246 245 245 245 246 244 242 243 245 244 242 241 241 242 245 247 246 253 257 253 252 258 259 260 262 266 270 272 273 272 271 270 269 270
274 274 274 274 273 273 274 275 275 274 272 270 267 262 256 255 258 258 252 246 245 244 242 242 241 241 239 239 238 237 235 235 235 236 237 237 238 238 238 239 238 238 238 238 237 238 239 242 244 244 243 242 241 240 241 242 241 242 244 244 243 243 243 243 241 240 243 244 246 248 246 249 257 258 256 257 258 258 260 263 267 271 273 273 273 273 273 273
272 272 271 271 271 270 271 272 273 273 272 270 269 267 262 259 260 259 254 248 245 244 242 240 240 240 240 239 238 237 236 235 234 234 235 235 236 236 237 237 238 237 237 237 237 237 239 240 242 243 242 242 242 240 239 241 240 240 242 242 241 241 240 240 239 239 242 244 245 248 248 247 255 260 259 258 259 260 261 262 266 270 271 272 273 273 274 276
270 270 269 269 269 268 268 269 270 271 271 269 269 267 264 261 260 259 255 249 246 244 242 240 239 239 239 238 237 236 236 235 234 233 233 234 234 235 236 237 237 237 236 236 236 236 237 238 239 241 241 241 241 240 239 241 241 241 241 240 239 241 240 240 241 241 242 244 244 247 248 247 250 256 258 258 259 261 262 264 267 269 271 273 274 275 276 277
269 268 268 267 266 266 266 266 268 268 269 269 268 264 262 260 259 258 255 250 247 245 244 240 237 237 237 238 237 236 235 235 234 232 232 232 232 233 234 235 236 236 236 235 235 235 236 237 238 240 240 239 240 239 239 241 243 243 242 241 244 246 245 244 245 244 244 244 244 245 248 249 249 252 255 257 259 261 264 266 267 269 271 273 276 278 278 279
268 267 266 265 264 263 263 264 265 266 266 267 265 261 259 257 257 258 257 253 250 248 246 242 238 235 235 236 237 236 235 235 234 232 231 231 230 231 232 233 234 235 235 235 234 234 234 235 238 240 240 240 240 241 240 242 244 244 243 244 247 249 248 247 247 246 245 244 244 245 248 251 251 252 254 257 258 261 263 265 266 267 270 272 274 276 278 279
267 265 264 263 262 261 261 261 262 263 263 263 261 259 257 256 256 258 258 256 253 251 249 245 239 235 233 234 235 235 234 234 234 232 231 230 229 229 230 231 232 233 234 234 234 233 233 233 235 238 240 240 242 243 242 242 244 244 243 243 245 247 247 246 246 245 245 244 242 243 245 249 250 251 253 255 257 259 260 261 262 264 267 269 271 273 275 276
266 264 263 262 261 260 259 259 259 259 259 259 257 257 256 254 255 257 259 258 256 253 251 248 242 236 233 232 233 234 233 233 233 232 231 229 228 228 229 230 230 231 232 233 233 234 234 233 234 236 238 239 241 243 241 240 242 242 241 241 242 243 244 244 245 245 244 243 241 240 240 242 245 248 250 252 253 254 256 258 260 262 265 267 269 270 272 273
266 263 261 260 259 259 258 256 256 256 256 255 254 253 253 253 254 257 259 259 258 256 253 250 243 236 233 232 232 233 233 232 232 232 231 229 228 228 229 229 229 230 231 232 232 233 233 232 232 235 237 238 239 240 239 239 241 241 241 241 242 244 245 246 248 247 246 246 244 243 241 241 244 248 249 251 252 254 256 258 260 262 264 266 268 270 271 272
265 262 259 257 257 257 256 255 254 253 253 252 252 251 252 253 254 256 259 259 258 257 253 250 244 237 234 232 231 233 233 232 232 232 231 229 228 228 228 229 229 230 231 231 231 232 232 232 232 234 236 237 237 238 238 238 240 242 242 242 244 247 249 249 250 248 248 249 248 248 247 245 246 249 251 253 254 255 257 258 259 261 262 264 266 268 270 271
264 261 258 255 255 254 254 253 252 251 250 250 250 250 250 251 253 255 257 258 258 257 254 251 245 239 235 233 231 232 232 232 231 231 230 229 228 228 228 229 229 229 230 230 231 232 232 232 232 233 235 235 236 237 238 239 242 244 245 245 246 248 249 249 248 248 249 250 250 251 251 249 249 251 253 254 254 254 254 255 256 258 260 262 264 266 267 269
262 259 257 254 252 252 252 251 250 249 248 248 248 248 249 250 251 253 255 257 258 259 257 253 247 240 236 234 232 231 231 231 231 230 229 229 228 227 228 228 228 228 229 229 229 231 231 231 231 232 234 236 237 239 241 242 244 246 246 246 246 247 248 248 248 248 248 249 249 249 248 246 246 248 250 251 252 252 252 253 255 257 259 261 263 265 266 268
261 258 255 252 250 250 250 249 248 247 247 247 247 247 248 249 251 252 254 257 258 259 259 255 249 243 239 237 233 231 230 230 230 230 229 228 227 227 227 228 228 227 227 227 228 229 230 230 230 231 233 235 236 238 240 240 241 242 243 243 243 244 245 246 246 246 246 247 247 246 245 243 244 245 248 250 251 252 253 254 255 257 259 261 263 265 267 269
259 256 254 251 249 248 248 248 247 246 246 246 246 247 248 249 250 251 253 255 258 259 259 257 252 245 241 239 235 231 229 228 229 229 228 228 227 227 227 227 227 226 226 226 227 228 229 229 230 231 231 233 234 234 236 237 238 239 240 240 241 241 242 244 245 245 244 245 245 246 246 245 245 245 247 249 251 253 254 256 257 259 261 263 265 265 267 268
257 255 254 252 248 247 247 248 248 247 246 245 246 247 248 249 250 252 253 255 256 257 257 256 254 248 244 241 236 232 229 228 227 227 228 227 227 227 228 228 227 226 225 226 226 227 227 227 228 230 230 231 232 233 235 236 237 238 238 239 239 241 242 244 245 245 245 245 246 246 246 246 245 246 247 249 252 254 256 258 260 262 264 265 265 266 267 268
256 255 254 253 250 247 246 247 248 248 247 246 247 248 249 250 251 253 255 255 255 256 255 255 254 250 245 241 237 233 230 227 226 226 226 226 226 226 227 228 227 226 225 225 226 226 227 226 227 228 229 230 231 232 234 236 238 238 239 239 240 241 242 244 245 245 245 246 245 245 246 247 246 248 249 251 253 255 257 259 261 263 264 265 265 266 267 268
255 254 253 253 251 249 246 246 247 248 248 247 247 248 249 251 252 253 255 255 255 255 254 254 253 251 246 242 238 234 230 227 225 224 225 226 225 225 226 227 227 226 226 225 225 226 226 226 227 228 228 229 230 231 233 235 237 238 239 240 241 242 243 244 245 246 247 247 246 246 247 248 249 251 253 254 255 256 258 259 260 262 262 263 264 265 267 268
253 252 251 251 251 250 247 246 246 247 248 247 247 248 249 249 250 251 252 253 254 254 252 251 251 250 246 242 238 234 230 226 224 224 224 225 225 225 226 227 227 226 226 225 225 225 225 225 226 227 227 228 230 232 233 234 236 237 238 240 242 243 245 246 247 248 248 248 248 248 249 251 252 253 254 255 256 257 258 259 260 261 261 262 263 265 267 268
251 250 249 248 248 247 247 245 244 244 245 246 246 246 247 247 248 249 250 250 251 251 250 249 249 249 246 242 238 233 229 226 223 223 224 224 224 224 225 226 226 226 226 226 225 225 225 224 225 226 226 226 229 232 233 234 235 235 236 238 241 243 245 246 247 248 249 249 250 250 252 252 253 254 255 257 258 259 260 261 261 262 262 263 264 265 266 266